Regional Weather Roundup
Issued by NWS

Home | Current Version | Previous Version | Text Only | Print | Product List | Glossary Off
Versions: 1 2 3 4 5 6 7 8 9 10 11 12 13 14 15 16 17 18 19 20 21 22 23 24 25 26 27 28 29 30 31 32 33 34 35 36 37 38 39 40 41 42 43 44 45 46 47 48 49 50

208
ASUS44 KLIX 280401
RWRLA
LOUISIANA WEATHER ROUNDUP
NATIONAL WEATHER SERVICE NEW ORLEANS LA
1000 PM CST THU NOV 27 2014

NOTE: "FAIR" INDICATES FEW OR NO CLOUDS BELOW 12,000 FEET WITH NO
      SIGNIFICANT WEATHER AND/OR OBSTRUCTIONS TO VISIBILITY.
      SKY/WX - SKY CONDITION AND SIGNIFICANT WEATHER.
      TMP - AIR TEMPERATURE.    DP   - DEWPOINT TEMPERATURE.
      RH  - RELATIVE HUMIDITY.  PRES - PRESSURE.
      HX  - HEAT INDEX.         WCI  - WIND CHILL INDEX.

*  THESE STATIONS ARE NOT NWS OR FAA STATIONS AND ARE NOT UNDER
   NWS QUALITY CONTROL.

LAZ040-048-061>063-065-066-069-280500-
SOUTHEAST LOUISIANA

CITY           SKY/WX    TMP DP  RH WIND       PRES   REMARKS
N.O. AUDUBON     N/A     50  36  58 MISG        N/A
N.O. INTL ARPT CLEAR     51  34  52 NE10      30.45R
N.O. LAKEFRONT CLEAR     53  35  50 NE17      30.45S
N.O. DOWNTOWN* FAIR      52  30  43 NE3       30.45S
SLIDELL        CLEAR     38  34  85 CALM      30.45S
BATON ROUGE    CLEAR     43  32  65 N3        30.45S
BOOTHVILLE     CLEAR     54  39  57 N9G16     30.44R
BELLE CHASSE   CLEAR     42  33  70 CALM      30.45R
BOGALUSA*        N/A     37  33  87 CALM      30.48S
NEW ROADS*     NOT AVBL
GONZALES*      NOT AVBL
HAMMOND*       NOT AVBL
HOUMA*         NOT AVBL
PORT FOURCHON* CLEAR     54  39  58 NE14      30.47S

$$

LAZ041-044-053-054-280500-
SOUTHWEST LOUISIANA

CITY           SKY/WX    TMP DP  RH WIND       PRES   REMARKS
LAKE CHARLES   CLEAR     47  36  65 E8        30.44S
LAFAYETTE      CLEAR     44  34  67 NE3       30.46S
PATTERSON      CLEAR     43  37  81 NE3       30.47
SALT POINT       N/A     51  37  58 CALM      30.44S
NEW IBERIA     CLEAR     43  34  70 N7        30.46S
CHENAULT AIRPK CLEAR     46  36  66 E5        30.45S

$$

LAZ027-028-280500-
CENTRAL LOUISIANA

CITY           SKY/WX    TMP DP  RH WIND       PRES   REMARKS
FORT POLK      CLEAR     44  34  69 E5        30.43F
ALEXANDRIA INT CLEAR     43  33  68 E7        30.45S
ALEXANDRIA     CLEAR     34  33  96 CALM      30.47S

$$

LAZ001-002-280500-
NORTHWEST LOUISIANA

CITY           SKY/WX    TMP DP  RH WIND       PRES   REMARKS
SHREVEPORT     CLEAR     42  34  73 SE3       30.43S
BARKSDALE AFB  CLEAR     40  30  69 E5        30.44S
DTN SHREVEPORT CLEAR     42  30  62 E6        30.44F

$$

LAZ014-016-280500-
NORTHEAST LOUISIANA

CITY           SKY/WX    TMP DP  RH WIND       PRES   REMARKS
MONROE         CLEAR     35  32  88 CALM      30.48F
TALLULAH       CLEAR     31  29  92 CALM      30.49F

$$




USA.gov is the U.S. government's official web portal to all federal, state and local government web resources and services.